パンスターズ彗星

C/2023 F1 ( PanSTARRS )

English version
Home page
Updated on October 14, 2023

---------------------------------------------------------------------

・ プロフィール

発見日 2023年3月27日
発見光度 20.8等
発見者 Pan-STARRS 1 telescope (Haleakala)

・ 写真集

・ 軌道要素

Epoch 2023 Feb. 25.0 TT = JDT 2460000.5
T 2023 June 28.35422 TT                                 Rudenko
q   1.7081131            (2000.0)            P               Q
z  +0.0037834      Peri.  216.65647     -0.89516686     +0.31212671
 +/-0.0000002      Node    25.24749     +0.19313904     +0.91500869
e   0.9935375      Incl.  131.75245     -0.40171334     -0.25560912
>From 199 observations 2023 Mar. 18-May 24, mean residual 0".5.

・ 光度変化

        m1 = 15.5 + 5 logΔ + 10.0 log r

---------------------------------------------------------------------

軌道要素はM.P.E.C. 2023-L37に掲載されたものです。
光度グラフはComet for Windowsで作成したものです。

---------------------------------------------------------------------

Copyright(C) Seiichi Yoshida (comet@aerith.net). All rights reserved.